Location: Hamburg
(53.5554°N, 9.9941°E)
Time: 04:46:17
(UTC+01:00)

ISS - Pass Details

Date: 11 November 2017
Orbit: 402 x 407 km, 51.6° (Epoch: 23 November)

Event Time Altitude Azimuth Distance (km) Brightness Sun altitude
Exits shadow 05:09:39 46° 134° (SE) 550 -3.0 -22.0°
Drops below altitude 10° 05:12:11 10° 106° (ESE) 1,457 0.0 -21.6°
Sets 05:14:16 0° 102° (ESE) 2,316 1.5 -21.3°
